Weather History for Council Bluffs, IA

Change the Weather History Date:

Thursday, November 22, 2012

  Actual Average Record
Temperature  
Mean Temperature 50 °F -  
Max Temperature 60 °F 44 °F 66 °F (2001)
Min Temperature 39 °F 28 °F 14 °F (2013)
Degree Days  
Heating Degree Days 16    
Moisture  
Dew Point 38 °F    
Average Humidity 60    
Maximum Humidity 77    
Minimum Humidity 42    
Precipitation  
Precipitation 0.00 in - - ()
Sea Level Pressure  
Sea Level Pressure 29.91 in    
Wind  
Wind Speed 15 mph (West)    
Max Wind Speed 26 mph    
Max Gust Speed 37 mph    
Visibility 10 miles    
Events      
Averages and records for this station are not official NWS values.
T = Trace of Precipitation, MM = Missing Value Source: NWS Daily Summary

Daily Weather History Graph

Daily Weather History Graph

Search for Another Location

Airport:

Trip Planner

Search our weather history database for the weather conditions in past years. The results will help you decide how hot, cold, wet, or windy it might be!

Date:

Astronomy

Nov. 22, 2012 Rise Set
Actual Time 7:19 AM CST 4:58 PM CST
Civil Twilight 6:49 AM CST 5:28 PM CST
Nautical Twilight 6:15 AM CST 6:02 PM CST
Astronomical Twilight 5:43 AM CST 6:35 PM CST
Moon 1:47 PM CST (11/22) 1:37 AM CST (11/22)
Length of Visible Light 10h 38m
Length of Day
9h 38m
Waxing Gibbous, 71% of the Moon is Illuminated
Nov 22
Waxing Gibbous
Nov 28
Full
Dec 6
Last Quarter
Dec 13
New
Dec 19
First Quarter

Hourly Weather History & Observations

Time (CST) Temp. Windchill Dew Point Humidity Pressure Visibility Wind Dir Wind Speed Gust Speed Precip Events Conditions
12:15 AM 59.0 °F - 42.8 °F 55% 29.81 in 10.0 mi South 20.7 mph 26.5 mph N/A   Clear
12:35 AM 59.0 °F - 42.8 °F 55% 29.80 in 10.0 mi SSW 17.3 mph 26.5 mph N/A   Clear
12:55 AM 59.0 °F - 42.8 °F 55% 29.80 in 10.0 mi South 13.8 mph 20.7 mph N/A   Clear
1:15 AM 57.2 °F - 42.8 °F 59% 29.79 in 10.0 mi South 17.3 mph - N/A   Clear
1:35 AM 57.2 °F - 41.0 °F 55% 29.78 in 10.0 mi South 13.8 mph 20.7 mph N/A   Clear
1:55 AM 57.2 °F - 42.8 °F 59% 29.78 in 10.0 mi SSW 12.7 mph - N/A   Clear
2:15 AM 57.2 °F - 42.8 °F 59% 29.77 in 10.0 mi South 15.0 mph - N/A   Clear
2:35 AM 57.2 °F - 42.8 °F 59% 29.77 in 10.0 mi South 12.7 mph 19.6 mph N/A   Clear
2:55 AM 57.2 °F - 42.8 °F 59% 29.77 in 10.0 mi South 12.7 mph 21.9 mph N/A   Clear
3:15 AM 57.2 °F - 42.8 °F 59% 29.76 in 10.0 mi South 15.0 mph - N/A   Clear
3:35 AM 57.2 °F - 42.8 °F 59% 29.75 in 10.0 mi South 12.7 mph 19.6 mph N/A   Clear
3:55 AM 57.2 °F - 42.8 °F 59% 29.75 in 10.0 mi South 13.8 mph 19.6 mph N/A   Clear
4:15 AM 57.2 °F - 42.8 °F 59% 29.74 in 10.0 mi South 13.8 mph - N/A   Clear
4:35 AM 55.4 °F - 42.8 °F 63% 29.74 in 10.0 mi South 11.5 mph 18.4 mph N/A   Clear
4:55 AM 55.4 °F - 42.8 °F 63% 29.74 in 10.0 mi South 9.2 mph - N/A   Clear
5:15 AM 55.4 °F - 42.8 °F 63% 29.74 in 10.0 mi South 9.2 mph - N/A   Clear
5:35 AM 53.6 °F - 42.8 °F 67% 29.73 in 10.0 mi South 10.4 mph - N/A   Clear
5:55 AM 55.4 °F - 44.6 °F 67% 29.73 in 10.0 mi SSW 10.4 mph - N/A   Clear
6:15 AM 55.4 °F - 44.6 °F 67% 29.74 in 10.0 mi SSW 11.5 mph - N/A   Clear
6:35 AM 53.6 °F - 44.6 °F 72% 29.74 in 10.0 mi SSW 12.7 mph - N/A   Clear
6:55 AM 53.6 °F - 44.6 °F 72% 29.74 in 10.0 mi SSW 12.7 mph - N/A   Clear
7:15 AM 51.8 °F - 44.6 °F 76% 29.75 in 10.0 mi SW 12.7 mph - N/A   Clear
7:35 AM 51.8 °F - 44.6 °F 76% 29.75 in 10.0 mi SSW 12.7 mph - N/A   Clear
7:55 AM 51.8 °F - 44.6 °F 76% 29.74 in 10.0 mi SSW 12.7 mph - N/A   Clear
8:15 AM 51.8 °F - 44.6 °F 76% 29.75 in 10.0 mi SW 9.2 mph - N/A   Clear
8:35 AM 51.8 °F - 44.6 °F 76% 29.76 in 10.0 mi SW 11.5 mph - N/A   Clear
8:55 AM 53.6 °F - 46.4 °F 77% 29.77 in 10.0 mi WSW 11.5 mph - N/A   Clear
9:15 AM 53.6 °F - 44.6 °F 72% 29.78 in 10.0 mi WSW 13.8 mph - N/A   Clear
9:35 AM 55.4 °F - 42.8 °F 63% 29.78 in 10.0 mi West 11.5 mph - N/A   Clear
9:55 AM 57.2 °F - 42.8 °F 59% 29.78 in 10.0 mi West 10.4 mph - N/A   Clear
10:15 AM 57.2 °F - 37.4 °F 48% 29.80 in 10.0 mi WNW 11.5 mph 18.4 mph N/A   Clear
10:35 AM 59.0 °F - 35.6 °F 42% 29.79 in 10.0 mi NW 10.4 mph - N/A   Clear
10:55 AM 59.0 °F - 35.6 °F 42% 29.80 in 10.0 mi WNW 12.7 mph - N/A   Clear
11:15 AM 59.0 °F - 35.6 °F 42% 29.81 in 10.0 mi WNW 16.1 mph - N/A   Clear
11:35 AM 59.0 °F - 35.6 °F 42% 29.81 in 10.0 mi NW 12.7 mph 20.7 mph N/A   Clear
11:55 AM 59.0 °F - 35.6 °F 42% 29.82 in 10.0 mi NW 16.1 mph 24.2 mph N/A   Clear
12:15 PM 60.8 °F - 37.4 °F 42% 29.84 in 10.0 mi NW 18.4 mph 28.8 mph N/A   Clear
12:35 PM 60.8 °F - 37.4 °F 42% 29.84 in 10.0 mi NW 19.6 mph 32.2 mph N/A   Clear
12:55 PM 60.8 °F - 37.4 °F 42% 29.85 in 10.0 mi NW 17.3 mph 26.5 mph N/A   Clear
1:15 PM 60.8 °F - 39.2 °F 45% 29.86 in 10.0 mi NW 20.7 mph 32.2 mph N/A   Clear
1:35 PM 60.8 °F - 37.4 °F 42% 29.88 in 9.0 mi NW 19.6 mph 31.1 mph N/A   Clear
1:55 PM 59.0 °F - 37.4 °F 45% 29.89 in 10.0 mi NW 25.3 mph 36.8 mph N/A   Clear
2:15 PM 57.2 °F - 37.4 °F 48% 29.91 in 10.0 mi NNW 24.2 mph 36.8 mph N/A   Clear
2:35 PM 55.4 °F - 37.4 °F 51% 29.92 in 10.0 mi NNW 23.0 mph 35.7 mph N/A   Clear
2:55 PM 55.4 °F - 37.4 °F 51% 29.94 in 10.0 mi NNW 19.6 mph 27.6 mph N/A   Partly Cloudy
3:15 PM 53.6 °F - 37.4 °F 54% 29.96 in 10.0 mi NNW 26.5 mph 34.5 mph N/A   Partly Cloudy
3:35 PM 53.6 °F - 37.4 °F 54% 29.97 in 10.0 mi NW 25.3 mph 33.4 mph N/A   Clear
3:55 PM 53.6 °F - 35.6 °F 51% 29.99 in 10.0 mi NNW 18.4 mph 31.1 mph N/A   Clear
4:15 PM 53.6 °F - 35.6 °F 51% 30.01 in 10.0 mi NNW 16.1 mph 27.6 mph N/A   Scattered Clouds
4:35 PM 51.8 °F - 35.6 °F 54% 30.03 in 10.0 mi NNW 25.3 mph 34.5 mph N/A   Scattered Clouds
4:55 PM 50.0 °F - 35.6 °F 58% 30.05 in 10.0 mi NW 20.7 mph 32.2 mph N/A   Clear
5:15 PM 48.2 °F - 35.6 °F 62% 30.07 in 10.0 mi NNW 17.3 mph 28.8 mph N/A   Clear
5:35 PM 48.2 °F - 35.6 °F 62% 30.08 in 10.0 mi NNW 15.0 mph 24.2 mph N/A   Clear
5:55 PM 46.4 °F 41.1 °F 35.6 °F 66% 30.10 in 10.0 mi NW 11.5 mph 20.7 mph N/A   Clear
6:15 PM 46.4 °F 41.9 °F 35.6 °F 66% 30.11 in 10.0 mi NW 9.2 mph - N/A   Clear
6:35 PM 44.6 °F 40.7 °F 35.6 °F 71% 30.12 in 10.0 mi NW 6.9 mph - N/A   Clear
6:55 PM 44.6 °F 40.7 °F 33.8 °F 66% 30.13 in 10.0 mi NW 6.9 mph - N/A   Clear
7:15 PM 44.6 °F 39.2 °F 33.8 °F 66% 30.14 in 10.0 mi NW 10.4 mph - N/A   Clear
7:55 PM 44.6 °F 38.8 °F 32.0 °F 61% 30.15 in 10.0 mi NW 11.5 mph 19.6 mph N/A   Clear
8:15 PM 44.6 °F 38.8 °F 32.0 °F 61% 30.16 in 10.0 mi NW 11.5 mph 17.3 mph N/A   Clear
8:35 PM 42.8 °F 37.5 °F 32.0 °F 66% 30.17 in 10.0 mi NW 9.2 mph - N/A   Clear
8:55 PM 42.8 °F 36.6 °F 32.0 °F 66% 30.18 in 10.0 mi NW 11.5 mph - N/A   Clear
9:15 PM 42.8 °F 36.2 °F 32.0 °F 66% 30.19 in 10.0 mi NW 12.7 mph - N/A   Clear
9:35 PM 42.8 °F 35.8 °F 32.0 °F 66% 30.20 in 10.0 mi NW 13.8 mph - N/A   Clear
9:55 PM 41.0 °F 34.7 °F 30.2 °F 65% 30.20 in 10.0 mi NW 10.4 mph - N/A   Clear
10:15 PM 41.0 °F 34.3 °F 30.2 °F 65% 30.20 in 10.0 mi WNW 11.5 mph - N/A   Clear
10:35 PM 41.0 °F 34.3 °F 30.2 °F 65% 30.20 in 10.0 mi WNW 11.5 mph - N/A   Clear
10:55 PM 39.2 °F 33.0 °F 30.2 °F 70% 30.19 in 10.0 mi West 9.2 mph - N/A   Clear
11:15 PM 39.2 °F 33.0 °F 30.2 °F 70% 30.20 in 10.0 mi West 9.2 mph - N/A   Clear
11:35 PM 39.2 °F 31.2 °F 30.2 °F 70% 30.21 in 10.0 mi WNW 13.8 mph - N/A   Clear
11:55 PM 39.2 °F 32.0 °F 30.2 °F 70% 30.20 in 10.0 mi WNW 11.5 mph - N/A   Clear